| time (UTC) | temp F | wind direction | speed knots | gust knots | rain 1hr in | rain 24hr in | rain mn in | humidity % | barometer mb |
| 20260507023721 | 57 | 35 | 0.0 | 0.0 | 0.00 | 1.28 | 0.00 | 66 | 1010.2 |
| 20260507023218 | 57 | 35 | 0.0 | 0.0 | 0.00 | 1.28 | 0.00 | 66 | 1010.2 |
| 20260507022715 | 57 | 35 | 0.0 | 0.0 | 0.00 | 1.28 | 0.00 | 66 | 1010.1 |
| 20260507022213 | 57 | 35 | 0.0 | 0.0 | 0.00 | 1.28 | 0.00 | 66 | 1010.2 |
| 20260507021713 | 57 | 35 | 0.0 | 0.0 | 0.00 | 1.28 | 0.00 | 66 | 1010.1 |
| 20260507021212 | 57 | 35 | 0.0 | 0.0 | 0.00 | 1.28 | 0.00 | 66 | 1010.1 |
| 20260507020710 | 57 | 35 | 0.0 | 0.0 | 0.00 | 1.28 | 0.00 | 66 | 1010.2 |
| 20260507020211 | 57 | 35 | 0.0 | 0.0 | 0.00 | 1.28 | 0.00 | 66 | 1010.2 |
| 20260507015711 | 57 | 35 | 0.0 | 0.0 | 0.00 | 1.28 | 0.00 | 66 | 1010.2 |
| 20260507015214 | 57 | 35 | 0.0 | 0.0 | 0.00 | 1.28 | 0.00 | 66 | 1010.1 |
| 20260507014710 | 57 | 35 | 0.0 | 0.0 | 0.00 | 1.28 | 0.00 | 66 | 1010.0 |
| 20260507014208 | 57 | 35 | 0.0 | 0.0 | 0.00 | 1.28 | 0.00 | 66 | 1010.2 |
| 20260507013706 | 57 | 35 | 0.0 | 0.0 | 0.00 | 1.28 | 0.00 | 66 | 1010.2 |
| 20260507013326 | 57 | 35 | 0.0 | 0.0 | 0.00 | 1.28 | 0.00 | 66 | 1010.2 |
| 20260507013226 | 57 | 35 | 0.0 | 0.0 | 0.00 | 1.28 | 0.00 | 66 | 1010.2 |
| 20260507012203 | 57 | 35 | 0.0 | 0.0 | 0.00 | 1.28 | 0.00 | 66 | 1010.3 |
| 20260507011659 | 57 | 35 | 0.0 | 0.0 | 0.00 | 1.28 | 0.00 | 66 | 1010.3 |
| 20260507011155 | 57 | 35 | 0.0 | 0.0 | 0.00 | 1.28 | 0.00 | 66 | 1010.3 |
| 20260507010654 | 57 | 35 | 0.0 | 0.0 | 0.00 | 1.28 | 0.00 | 66 | 1010.2 |
| 20260507010153 | 57 | 35 | 0.0 | 0.0 | 0.00 | 1.28 | 0.00 | 66 | 1010.2 |
| 20260507005655 | 57 | 35 | 0.0 | 0.0 | 0.00 | 1.28 | 0.00 | 66 | 1010.2 |
| 20260507005155 | 57 | 35 | 0.0 | 0.0 | 0.00 | 1.28 | 0.00 | 66 | 1010.3 |
| 20260507004655 | 57 | 35 | 0.0 | 0.0 | 0.00 | 1.28 | 0.00 | 66 | 1010.2 |
| 20260507004153 | 57 | 37 | 0.0 | 0.0 | 0.00 | 1.28 | 0.00 | 66 | 1010.2 |
| 20260507003654 | 57 | 37 | 0.0 | 0.0 | 0.00 | 1.28 | 0.00 | 66 | 1010.3 |
| 20260507003154 | 57 | 37 | 0.0 | 0.0 | 0.00 | 1.28 | 0.00 | 66 | 1010.3 |
| 20260507002653 | 57 | 35 | 0.0 | 0.0 | 0.00 | 1.28 | 0.00 | 66 | 1010.3 |
| 20260507002149 | 57 | 37 | 0.0 | 0.0 | 0.00 | 1.28 | 0.00 | 66 | 1010.3 |
| 20260507001900 | 57 | 37 | 0.0 | 0.0 | 0.00 | 1.28 | 0.00 | 66 | 1010.4 |
| 20260507001718 | 57 | 37 | 0.0 | 0.0 | 0.00 | 1.28 | 0.00 | 66 | 1010.4 |
| 20260507000856 | 57 | 37 | 0.0 | 0.0 | 0.00 | 1.34 | 0.00 | 66 | 1010.4 |
| 20260507000721 | 57 | 37 | 0.0 | 0.0 | 0.00 | 1.34 | 0.00 | 66 | 1010.4 |
| 20260506235641 | 57 | 37 | 0.0 | 0.0 | 0.00 | 1.34 | 0.00 | 65 | 1010.4 |
| 20260506235141 | 57 | 37 | 0.0 | 0.0 | 0.00 | 1.34 | 0.00 | 66 | 1010.4 |
| 20260506234839 | 57 | 38 | 0.0 | 0.0 | 0.00 | 1.34 | 0.00 | 66 | 1010.4 |
| 20260506234707 | 57 | 37 | 0.0 | 0.0 | 0.00 | 1.34 | 0.00 | 66 | 1010.3 |
| 20260506233641 | 57 | 38 | 0.0 | 0.0 | 0.00 | 1.34 | 0.00 | 66 | 1010.4 |
| 20260506233137 | 57 | 38 | 0.0 | 0.0 | 0.00 | 1.34 | 0.00 | 66 | 1010.4 |
| 20260506232635 | 57 | 38 | 0.0 | 0.0 | 0.00 | 1.34 | 0.00 | 66 | 1010.5 |
| 20260506232136 | 57 | 62 | 0.0 | 0.0 | 0.00 | 1.34 | 0.00 | 66 | 1010.5 |
| 20260506231631 | 57 | 62 | 0.0 | 0.0 | 0.00 | 1.34 | 0.00 | 66 | 1010.5 |
| 20260506231133 | 57 | 61 | 0.0 | 0.0 | 0.00 | 1.34 | 0.00 | 66 | 1010.5 |
| 20260506230628 | 57 | 61 | 0.0 | 0.0 | 0.00 | 1.34 | 0.00 | 66 | 1010.5 |
| 20260506230410 | 57 | 61 | 0.0 | 0.0 | 0.00 | 1.34 | 0.00 | 65 | 1010.6 |
| 20260506230209 | 57 | 61 | 0.0 | 0.0 | 0.00 | 1.34 | 0.00 | 65 | 1010.5 |
| 20260506225128 | 57 | 61 | 0.0 | 0.0 | 0.00 | 1.34 | 0.00 | 65 | 1010.6 |
| 20260506224551 | 57 | 61 | 0.0 | 0.0 | 0.00 | 1.34 | 0.00 | 65 | 1010.6 |
| 20260506224159 | 57 | 61 | 0.0 | 0.0 | 0.00 | 1.34 | 0.00 | 65 | 1010.5 |
| 20260506223141 | 57 | 61 | 0.0 | 0.0 | 0.00 | 1.34 | 0.00 | 65 | 1010.5 |
| 20260506222636 | 57 | 62 | 0.0 | 0.0 | 0.00 | 1.34 | 0.00 | 65 | 1010.5 |
| 20260506222137 | 57 | 62 | 0.0 | 0.0 | 0.00 | 1.34 | 0.00 | 65 | 1010.4 |
| 20260506221636 | 57 | 62 | 0.0 | 0.0 | 0.00 | 1.34 | 0.00 | 65 | 1010.3 |
| 20260506221138 | 57 | 62 | 0.0 | 0.0 | 0.00 | 1.34 | 0.00 | 65 | 1010.3 |
| 20260506220636 | 57 | 62 | 0.0 | 0.0 | 0.00 | 1.34 | 0.00 | 65 | 1010.4 |
| 20260506220139 | 57 | 62 | 0.0 | 0.0 | 0.00 | 1.34 | 0.00 | 65 | 1010.4 |
| 20260506215630 | 57 | 62 | 0.0 | 0.0 | 0.00 | 1.34 | 1.34 | 65 | 1010.4 |
| 20260506215128 | 57 | 62 | 0.0 | 0.0 | 0.00 | 1.34 | 1.34 | 65 | 1010.4 |
| 20260506214628 | 57 | 63 | 0.0 | 0.0 | 0.00 | 1.34 | 1.34 | 65 | 1010.4 |
| 20260506214126 | 57 | 102 | 0.0 | 1.7 | 0.00 | 1.34 | 1.34 | 65 | 1010.5 |
| 20260506213625 | 57 | 248 | 0.0 | 3.5 | 0.00 | 1.34 | 1.34 | 65 | 1010.5 |
| 20260506213325 | 58 | 217 | 0.0 | 4.3 | 0.00 | 1.34 | 1.34 | 65 | 1010.4 |
| 20260506213157 | 57 | 243 | 0.9 | 3.5 | 0.00 | 1.34 | 1.34 | 65 | 1010.3 |
| 20260506212125 | 58 | 72 | 2.6 | 6.1 | 0.00 | 1.34 | 1.34 | 65 | 1010.4 |
| 20260506211622 | 58 | 87 | 3.5 | 6.1 | 0.00 | 1.35 | 1.34 | 65 | 1010.4 |
| 20260506211124 | 58 | 89 | 2.6 | 6.1 | 0.00 | 1.35 | 1.34 | 65 | 1010.5 |
| 20260506210623 | 58 | 56 | 3.5 | 7.8 | 0.00 | 1.35 | 1.34 | 65 | 1010.4 |
| 20260506210124 | 58 | 61 | 2.6 | 7.8 | 0.00 | 1.35 | 1.34 | 65 | 1010.4 |
| 20260506205622 | 58 | 86 | 2.6 | 6.1 | 0.01 | 1.35 | 1.34 | 65 | 1010.3 |
| 20260506205119 | 58 | 75 | 4.3 | 6.1 | 0.02 | 1.35 | 1.34 | 65 | 1010.3 |
| 20260506204619 | 58 | 93 | 0.0 | 5.2 | 0.02 | 1.35 | 1.34 | 65 | 1010.4 |
| 20260506204303 | 57 | 16 | 0.0 | 0.0 | 0.08 | 1.38 | 1.34 | 65 | 1010.4 |
| 20260506204144 | 57 | 17 | 0.0 | 0.0 | 0.05 | 1.36 | 1.34 | 65 | 1010.4 |
| 20260506203116 | 58 | 16 | 0.0 | 0.0 | 0.12 | 1.39 | 1.34 | 65 | 1010.4 |
| 20260506202616 | 58 | 144 | 0.0 | 0.0 | 0.14 | 1.39 | 1.34 | 65 | 1010.4 |
| 20260506202116 | 58 | 144 | 0.0 | 0.0 | 0.17 | 1.39 | 1.34 | 65 | 1010.3 |
| 20260506201615 | 57 | 142 | 0.0 | 0.0 | 0.20 | 1.42 | 1.34 | 65 | 1010.3 |
| 20260506201112 | 57 | 241 | 0.0 | 0.9 | 0.20 | 1.44 | 1.34 | 65 | 1010.3 |
| 20260506200611 | 57 | 241 | 0.0 | 0.9 | 0.22 | 1.46 | 1.34 | 65 | 1010.2 |
| 20260506200109 | 57 | 241 | 0.0 | 2.6 | 0.23 | 1.46 | 1.34 | 65 | 1010.2 |
| 20260506195608 | 57 | 241 | 0.9 | 2.6 | 0.22 | 1.24 | 1.33 | 65 | 1010.1 |
| 20260506195109 | 57 | 241 | 0.0 | 0.9 | 0.21 | 1.24 | 1.31 | 65 | 1010.0 |
| 20260506194605 | 57 | 238 | 0.0 | 6.1 | 0.20 | 1.25 | 1.31 | 65 | 1009.9 |
| 20260506194105 | 57 | 227 | 0.9 | 6.1 | 0.18 | 1.25 | 1.28 | 65 | 1009.9 |
| 20260506193606 | 57 | 275 | 4.3 | 7.8 | 0.15 | 1.27 | 1.25 | 65 | 1009.7 |
| 20260506193107 | 57 | 245 | 6.1 | 7.8 | 0.11 | 1.27 | 1.21 | 65 | 1009.9 |
| 20260506192605 | 57 | 289 | 0.0 | 0.0 | 0.09 | 1.28 | 1.19 | 65 | 1009.8 |
| 20260506192109 | 58 | 292 | 0.0 | 0.0 | 0.06 | 1.28 | 1.16 | 65 | 1009.9 |
| 20260506191603 | 58 | 344 | 0.0 | 0.0 | 0.03 | 1.29 | 1.13 | 65 | 1009.7 |
| 20260506191104 | 58 | 278 | 0.0 | 0.0 | 0.02 | 1.29 | 1.13 | 65 | 1009.6 |
| 20260506190604 | 59 | 269 | 0.0 | 0.0 | 0.01 | 1.29 | 1.11 | 65 | 1009.5 |
| 20260506190329 | 59 | 243 | 0.0 | 0.0 | 0.00 | 1.30 | 1.11 | 65 | 1009.3 |
| 20260506190136 | 59 | 243 | 0.0 | 0.0 | 0.00 | 1.30 | 1.11 | 65 | 1009.4 |
| 20260506185100 | 59 | 244 | 0.0 | 5.2 | 0.00 | 1.31 | 1.11 | 65 | 1009.4 |
| 20260506184558 | 59 | 243 | 1.7 | 6.1 | 0.00 | 1.31 | 1.11 | 65 | 1009.4 |
| 20260506184254 | 59 | 169 | 0.0 | 10.4 | 0.00 | 1.32 | 1.11 | 65 | 1009.4 |
| 20260506184122 | 59 | 234 | 4.3 | 7.8 | 0.00 | 1.32 | 1.11 | 65 | 1009.4 |
| 20260506183057 | 59 | 226 | 4.3 | 10.4 | 0.00 | 1.32 | 1.11 | 65 | 1009.3 |
| 20260506182557 | 59 | 199 | 1.7 | 5.2 | 0.00 | 1.32 | 1.11 | 65 | 1009.3 |
| 20260506182055 | 58 | 231 | 0.0 | 3.5 | 0.00 | 1.32 | 1.11 | 65 | 1009.4 |
| 20260506181554 | 58 | 233 | 2.6 | 4.3 | 0.00 | 1.33 | 1.11 | 65 | 1009.4 |
| 20260506181054 | 58 | 223 | 2.6 | 4.3 | 0.00 | 1.33 | 1.11 | 65 | 1009.4 |
| 20260506180551 | 58 | 206 | 1.7 | 5.2 | 0.01 | 1.33 | 1.11 | 65 | 1009.4 |
| 20260506180048 | 58 | 165 | 3.5 | 5.2 | 0.01 | 1.34 | 1.11 | 65 | 1009.4 |
| 20260506175550 | 58 | 189 | 2.6 | 5.2 | 0.01 | 1.33 | 1.11 | 65 | 1009.4 |
| 20260506175049 | 57 | 118 | 0.0 | 2.6 | 0.01 | 1.34 | 1.11 | 65 | 1009.3 |
| 20260506174551 | 57 | 243 | 0.0 | 0.0 | 0.01 | 1.35 | 1.11 | 65 | 1009.4 |
| 20260506174048 | 57 | 243 | 0.0 | 2.6 | 0.01 | 1.35 | 1.11 | 65 | 1009.3 |
| 20260506173548 | 57 | 243 | 0.0 | 2.6 | 0.02 | 1.35 | 1.11 | 65 | 1009.3 |
| 20260506173048 | 57 | 243 | 0.9 | 2.6 | 0.06 | 1.35 | 1.11 | 65 | 1009.1 |
| 20260506172827 | 57 | 243 | 1.7 | 3.5 | 0.07 | 1.36 | 1.11 | 66 | 1009.1 |
| 20260506172624 | 57 | 243 | 0.9 | 3.5 | 0.06 | 1.35 | 1.11 | 66 | 1009.2 |
| 20260506171542 | 56 | 244 | 2.6 | 3.5 | 0.12 | 1.36 | 1.11 | 66 | 1009.1 |
| 20260506171037 | 56 | 244 | 1.7 | 2.6 | 0.28 | 1.37 | 1.11 | 66 | 1009.1 |
| 20260506170534 | 56 | 244 | 0.9 | 1.7 | 0.29 | 1.37 | 1.10 | 66 | 1008.9 |
| 20260506170040 | 56 | 244 | 1.7 | 4.3 | 0.30 | 1.38 | 1.10 | 66 | 1008.9 |
| 20260506165925 | 56 | 276 | 1.7 | 8.7 | 0.31 | 1.07 | 1.10 | 66 | 1008.8 |
| 20260506165913 | 56 | 241 | 4.3 | 9.6 | 0.33 | 1.07 | 1.10 | 66 | 1009.0 |
| 20260506165637 | 56 | 245 | 0.9 | 5.2 | 0.31 | 1.07 | 1.10 | 66 | 1009.0 |
| 20260506164029 | 57 | 252 | 4.3 | 11.3 | 0.34 | 1.07 | 1.10 | 66 | 1008.9 |
| 20260506163531 | 57 | 255 | 7.8 | 11.3 | 0.37 | 1.08 | 1.09 | 66 | 1009.0 |
| 20260506163032 | 56 | 221 | 5.2 | 14.8 | 0.36 | 1.08 | 1.05 | 67 | 1008.9 |
| 20260506162525 | 57 | 220 | 4.3 | 14.8 | 0.37 | 1.08 | 1.05 | 67 | 1009.0 |
| 20260506162201 | 59 | 278 | 5.2 | 6.1 | 0.31 | 1.08 | 0.95 | 66 | 1008.9 |
| 20260506162051 | 57 | 319 | 1.7 | 6.1 | 0.37 | 1.08 | 1.04 | 68 | 1008.8 |
| 20260506161023 | 59 | 180 | 3.5 | 8.7 | 0.17 | 1.08 | 0.83 | 65 | 1009.0 |
| 20260506160521 | 59 | 168 | 3.5 | 8.7 | 0.15 | 1.08 | 0.81 | 66 | 1008.8 |
| 20260506160022 | 59 | 230 | 3.5 | 6.1 | 0.13 | 1.08 | 0.80 | 66 | 1008.9 |
| 20260506155521 | 59 | 175 | 3.5 | 6.1 | 0.13 | 0.94 | 0.80 | 66 | 1008.8 |
| 20260506155025 | 59 | 147 | 2.6 | 4.3 | 0.13 | 0.94 | 0.79 | 66 | 1009.0 |
| 20260506154706 | 59 | 254 | 0.9 | 8.7 | 0.10 | 0.94 | 0.76 | 66 | 1008.8 |
| 20260506154540 | 59 | 254 | 0.9 | 8.7 | 0.11 | 0.94 | 0.77 | 66 | 1008.9 |
| 20260506153519 | 60 | 76 | 3.5 | 8.7 | 0.06 | 0.94 | 0.71 | 66 | 1008.9 |
| 20260506153020 | 60 | 125 | 3.5 | 8.7 | 0.02 | 0.94 | 0.69 | 66 | 1009.0 |
| 20260506152520 | 60 | 93 | 1.7 | 8.7 | 0.02 | 0.94 | 0.68 | 66 | 1008.9 |
| 20260506152021 | 60 | 38 | 5.2 | 9.6 | 0.01 | 0.94 | 0.67 | 66 | 1008.9 |
| 20260506151519 | 60 | 152 | 2.6 | 9.6 | 0.00 | 0.95 | 0.67 | 66 | 1009.1 |
| 20260506151015 | 60 | 100 | 5.2 | 8.7 | 0.00 | 0.95 | 0.66 | 66 | 1009.0 |
| 20260506150643 | 60 | 59 | 4.3 | 8.7 | 0.00 | 0.95 | 0.66 | 66 | 1009.0 |
| 20260506150536 | 60 | 80 | 3.5 | 8.7 | 0.00 | 0.95 | 0.66 | 66 | 1009.0 |
| 20260506145509 | 60 | 149 | 0.9 | 3.5 | 0.00 | 0.96 | 0.66 | 66 | 1009.1 |
| 20260506145011 | 59 | 152 | 0.0 | 5.2 | 0.01 | 0.98 | 0.66 | 65 | 1009.2 |
| 20260506144721 | 59 | 71 | 1.7 | 5.2 | 0.02 | 1.02 | 0.66 | 66 | 1009.3 |
| 20260506144539 | 59 | 152 | 1.7 | 5.2 | 0.02 | 0.99 | 0.66 | 66 | 1009.2 |
| 20260506143507 | 59 | 319 | 0.9 | 5.2 | 0.02 | 1.04 | 0.66 | 66 | 1009.4 |
| 20260506143008 | 59 | 220 | 0.9 | 7.8 | 0.02 | 1.04 | 0.66 | 66 | 1009.5 |
| 20260506142714 | 59 | 110 | 3.5 | 8.7 | 0.05 | 1.05 | 0.66 | 65 | 1009.4 |
| 20260506142544 | 59 | 107 | 3.5 | 7.8 | 0.04 | 1.04 | 0.66 | 66 | 1009.5 |
| 20260506141428 | 59 | 212 | 5.2 | 9.6 | 0.24 | 1.05 | 0.66 | 65 | 1009.5 |
| 20260506140551 | 59 | 193 | 5.2 | 7.8 | 0.31 | 1.05 | 0.66 | 66 | 1009.6 |
| 20260506140250 | 58 | 214 | 1.7 | 5.2 | 0.37 | 0.71 | 0.65 | 66 | 1009.6 |
| 20260506140116 | 59 | 224 | 2.6 | 5.2 | 0.34 | 1.06 | 0.66 | 66 | 1009.6 |
| 20260506135049 | 58 | 186 | 1.7 | 7.8 | 0.37 | 0.71 | 0.65 | 66 | 1009.7 |
| 20260506134551 | 58 | 190 | 2.6 | 7.8 | 0.36 | 0.72 | 0.65 | 66 | 1009.7 |
| 20260506134047 | 58 | 130 | 2.6 | 8.7 | 0.36 | 0.72 | 0.65 | 66 | 1009.8 |
| 20260506133545 | 58 | 179 | 4.3 | 11.3 | 0.36 | 0.72 | 0.65 | 67 | 1009.8 |
| 20260506133049 | 58 | 206 | 1.7 | 11.3 | 0.35 | 0.72 | 0.64 | 67 | 1009.7 |
| 20260506132545 | 58 | 180 | 4.3 | 15.6 | 0.34 | 0.73 | 0.62 | 67 | 1009.8 |
| 20260506132045 | 58 | 216 | 5.2 | 17.4 | 0.33 | 0.74 | 0.61 | 68 | 1009.8 |
| 20260506131548 | 58 | 178 | 11.3 | 17.4 | 0.31 | 0.74 | 0.56 | 69 | 1009.9 |
| 20260506131258 | 59 | 152 | 6.1 | 8.7 | 0.07 | 0.76 | 0.35 | 69 | 1010.0 |
| 20260506131117 | 59 | 157 | 4.3 | 10.4 | 0.13 | 0.75 | 0.41 | 68 | 1009.9 |
| 20260506130043 | 60 | 165 | 4.3 | 9.6 | 0.05 | 0.76 | 0.31 | 69 | 1009.9 |
| 20260506125541 | 60 | 207 | 5.2 | 9.6 | 0.02 | 0.72 | 0.29 | 68 | 1009.8 |
| 20260506125037 | 60 | 214 | 4.3 | 9.6 | 0.01 | 0.73 | 0.28 | 68 | 1009.8 |
| 20260506124539 | 60 | 214 | 6.1 | 9.6 | 0.01 | 0.74 | 0.28 | 68 | 1009.8 |
| 20260506124040 | 60 | 188 | 6.1 | 12.2 | 0.01 | 0.74 | 0.28 | 68 | 1009.8 |
| 20260506123539 | 60 | 190 | 5.2 | 12.2 | 0.02 | 0.74 | 0.28 | 68 | 1009.7 |
| 20260506123036 | 60 | 252 | 5.2 | 10.4 | 0.02 | 0.74 | 0.28 | 68 | 1009.8 |
| 20260506122534 | 60 | 176 | 5.2 | 8.7 | 0.02 | 0.74 | 0.28 | 68 | 1009.8 |
| 20260506122035 | 60 | 186 | 2.6 | 10.4 | 0.02 | 0.74 | 0.28 | 67 | 1009.7 |
| 20260506121535 | 60 | 85 | 4.3 | 10.4 | 0.02 | 0.74 | 0.28 | 67 | 1009.7 |
| 20260506121032 | 60 | 202 | 3.5 | 7.8 | 0.02 | 0.74 | 0.28 | 67 | 1009.8 |
| 20260506120534 | 60 | 180 | 1.7 | 6.1 | 0.02 | 0.75 | 0.28 | 67 | 1009.8 |
| 20260506120038 | 60 | 241 | 0.9 | 9.6 | 0.02 | 0.75 | 0.28 | 66 | 1009.8 |
| 20260506115901 | 60 | 168 | 2.6 | 10.4 | 0.02 | 0.74 | 0.28 | 67 | 1009.8 |
| 20260506115850 | 60 | 228 | 5.2 | 10.4 | 0.02 | 0.75 | 0.28 | 67 | 1009.8 |
| 20260506115626 | 60 | 221 | 4.3 | 9.6 | 0.02 | 0.74 | 0.28 | 67 | 1009.9 |
| 20260506114033 | 59 | 209 | 4.3 | 9.6 | 0.02 | 0.76 | 0.28 | 67 | 1009.9 |
| 20260506113737 | 59 | 142 | 6.1 | 11.3 | 0.01 | 0.76 | 0.27 | 66 | 1009.8 |
| 20260506113552 | 60 | 176 | 2.6 | 11.3 | 0.01 | 0.76 | 0.27 | 66 | 1010.0 |
| 20260506112529 | 59 | 219 | 4.3 | 9.6 | 0.01 | 0.76 | 0.27 | 66 | 1009.8 |
| 20260506112029 | 59 | 159 | 4.3 | 8.7 | 0.01 | 0.76 | 0.27 | 66 | 1009.9 |
| 20260506111529 | 59 | 154 | 4.3 | 10.4 | 0.02 | 0.76 | 0.27 | 66 | 1010.0 |
| 20260506111124 | 60 | 169 | 3.5 | 7.8 | 0.02 | 0.76 | 0.27 | 65 | 1010.0 |
| 20260506111044 | 59 | 162 | 5.2 | 10.4 | 0.02 | 0.76 | 0.27 | 66 | 1010.0 |
| 20260506110026 | 59 | 164 | 1.7 | 9.6 | 0.01 | 0.76 | 0.26 | 65 | 1010.0 |
| 20260506105523 | 59 | 207 | 1.7 | 9.6 | 0.02 | 0.76 | 0.26 | 65 | 1010.0 |
| 20260506105453 | 59 | 178 | 2.6 | 6.1 | 0.03 | 0.76 | 0.26 | 65 | 1010.0 |
| 20260506105140 | 59 | 186 | 1.7 | 7.8 | 0.02 | 0.76 | 0.26 | 65 | 1010.2 |
| 20260506104533 | 59 | 148 | 3.5 | 7.8 | 0.02 | 0.76 | 0.26 | 65 | 1010.2 |
| 20260506103510 | 59 | 86 | 0.9 | 6.1 | 0.03 | 0.76 | 0.26 | 65 | 1010.1 |
| 20260506103008 | 59 | 168 | 3.5 | 6.1 | 0.04 | 0.76 | 0.26 | 65 | 1010.2 |
| 20260506102504 | 59 | 158 | 1.7 | 4.3 | 0.04 | 0.76 | 0.26 | 65 | 1010.2 |
| 20260506102005 | 59 | 337 | 0.9 | 3.5 | 0.04 | 0.76 | 0.25 | 65 | 1010.2 |
| 20260506101505 | 59 | 154 | 0.9 | 5.2 | 0.04 | 0.76 | 0.25 | 65 | 1010.3 |
| 20260506101001 | 59 | 110 | 1.7 | 6.1 | 0.04 | 0.76 | 0.25 | 65 | 1010.4 |
| 20260506100633 | 59 | 82 | 1.7 | 5.2 | 0.05 | 0.71 | 0.24 | 65 | 1010.5 |
| 20260506100521 | 59 | 226 | 1.7 | 6.1 | 0.05 | 0.76 | 0.25 | 65 | 1010.6 |
| 20260506095457 | 58 | 196 | 0.9 | 4.3 | 0.04 | 0.71 | 0.24 | 65 | 1010.6 |
| 20260506094952 | 58 | 137 | 0.9 | 5.2 | 0.03 | 0.71 | 0.24 | 65 | 1010.6 |
| 20260506094506 | 58 | 235 | 1.7 | 5.2 | 0.03 | 0.71 | 0.24 | 65 | 1010.6 |
| 20260506093948 | 58 | 134 | 0.9 | 4.3 | 0.02 | 0.71 | 0.23 | 65 | 1010.6 |
| 20260506093450 | 58 | 158 | 1.7 | 4.3 | 0.02 | 0.71 | 0.22 | 65 | 1010.6 |
| 20260506092951 | 58 | 107 | 0.0 | 2.6 | 0.02 | 0.71 | 0.22 | 65 | 1010.6 |
| 20260506092444 | 58 | 107 | 0.0 | 4.3 | 0.02 | 0.71 | 0.22 | 65 | 1010.6 |
| 20260506091942 | 58 | 107 | 1.7 | 5.2 | 0.01 | 0.71 | 0.21 | 65 | 1010.6 |
| 20260506091935 | 58 | 109 | 2.6 | 8.7 | 0.00 | 0.71 | 0.20 | 65 | 1010.6 |
| 20260506091558 | 58 | 90 | 3.5 | 6.1 | 0.01 | 0.71 | 0.21 | 65 | 1010.6 |
| 20260506091006 | 58 | 62 | 2.6 | 7.8 | 0.01 | 0.71 | 0.21 | 65 | 1010.6 |
| 20260506085941 | 58 | 69 | 3.5 | 9.6 | 0.00 | 0.71 | 0.20 | 65 | 1010.5 |
| 20260506085436 | 58 | 114 | 3.5 | 9.6 | 0.00 | 0.71 | 0.20 | 65 | 1010.5 |
| 20260506084935 | 58 | 79 | 4.3 | 8.7 | 0.00 | 0.71 | 0.20 | 65 | 1010.5 |
| 20260506084439 | 58 | 104 | 4.3 | 10.4 | 0.00 | 0.71 | 0.20 | 65 | 1010.5 |
| 20260506084430 | 58 | 73 | 5.2 | 9.6 | 0.01 | 0.71 | 0.20 | 65 | 1010.2 |
| 20260506084044 | 58 | 89 | 5.2 | 11.3 | 0.01 | 0.71 | 0.20 | 65 | 1010.4 |
| 20260506083501 | 58 | 107 | 6.1 | 11.3 | 0.01 | 0.71 | 0.20 | 65 | 1010.4 |
| 20260506082431 | 58 | 104 | 3.5 | 8.7 | 0.01 | 0.71 | 0.20 | 65 | 1010.2 |
| 20260506081935 | 58 | 96 | 4.3 | 7.8 | 0.01 | 0.71 | 0.20 | 65 | 1010.1 |
| 20260506081426 | 58 | 107 | 3.5 | 5.2 | 0.01 | 0.71 | 0.20 | 65 | 1010.2 |
| 20260506080925 | 58 | 58 | 2.6 | 8.7 | 0.01 | 0.71 | 0.20 | 65 | 1010.0 |
| 20260506080427 | 58 | 79 | 3.5 | 8.7 | 0.02 | 0.71 | 0.20 | 65 | 1010.2 |
| 20260506072921 | 57 | 11 | 1.7 | 3.5 | 0.13 | 0.68 | 0.20 | 66 | 1010.3 |
| 20260506072419 | 57 | 0 | 0.9 | 2.6 | 0.13 | 0.68 | 0.20 | 66 | 1010.3 |
| 20260506072122 | 56 | 0 | 1.7 | 3.5 | 0.13 | 0.68 | 0.20 | 65 | 1010.3 |
| 20260506071947 | 56 | 0 | 1.7 | 3.5 | 0.13 | 0.68 | 0.20 | 66 | 1010.4 |
| 20260506070916 | 56 | 35 | 2.6 | 3.5 | 0.13 | 0.68 | 0.19 | 66 | 1010.3 |
| 20260506070418 | 56 | 30 | 1.7 | 3.5 | 0.13 | 0.68 | 0.19 | 66 | 1010.3 |
| 20260506062435 | 57 | 41 | 2.6 | 3.5 | 0.00 | 0.57 | 0.06 | 66 | 1010.6 |
| 20260506061820 | 57 | 71 | 0.0 | 0.0 | 0.00 | 0.57 | 0.06 | 66 | 1010.4 |
| 20260506061743 | 56 | 65 | 0.0 | 0.0 | 0.00 | 0.57 | 0.06 | 65 | 1010.4 |
| 20260506061513 | 57 | 72 | 3.5 | 4.3 | 0.00 | 0.57 | 0.06 | 66 | 1010.4 |
| 20260506050948 | 56 | 10 | 0.0 | 0.0 | 0.00 | 0.57 | 0.06 | 66 | 1010.4 |
| 20260506050719 | 56 | 10 | 0.0 | 1.7 | 0.00 | 0.57 | 0.06 | 66 | 1010.4 |
| 20260506050522 | 56 | 10 | 0.0 | 1.7 | 0.00 | 0.57 | 0.06 | 66 | 1010.5 |
| 20260506045006 | 55 | 11 | 0.0 | 0.0 | 0.00 | 0.57 | 0.06 | 66 | 1010.4 |
| 20260506043941 | 55 | 35 | 0.0 | 3.5 | 0.00 | 0.57 | 0.06 | 66 | 1010.5 |
| 20260506043601 | 55 | 0 | 2.6 | 4.3 | 0.00 | 0.57 | 0.06 | 66 | 1010.4 |
| 20260506043502 | 55 | 38 | 0.0 | 4.3 | 0.00 | 0.57 | 0.06 | 66 | 1010.3 |
| 20260506042439 | 55 | 348 | 0.9 | 1.7 | 0.00 | 0.57 | 0.06 | 66 | 1010.5 |
| 20260506041939 | 55 | 1 | 0.0 | 0.0 | 0.00 | 0.57 | 0.06 | 66 | 1010.6 |
| 20260506041439 | 55 | 1 | 0.0 | 0.0 | 0.00 | 0.57 | 0.06 | 66 | 1010.5 |
| 20260506040941 | 55 | 1 | 0.0 | 0.0 | 0.00 | 0.57 | 0.06 | 66 | 1010.6 |
| 20260506040840 | 55 | 1 | 0.0 | 0.0 | 0.00 | 0.57 | 0.06 | 66 | 1010.8 |
| 20260506040540 | 55 | 1 | 0.0 | 0.0 | 0.00 | 0.57 | 0.06 | 66 | 1010.8 |
| 20260506040001 | 55 | 1 | 0.0 | 0.0 | 0.00 | 0.57 | 0.06 | 66 | 1010.8 |
| 20260506034936 | 55 | 1 | 0.0 | 0.0 | 0.00 | 0.57 | 0.06 | 66 | 1010.8 |
| 20260506034431 | 55 | 1 | 0.0 | 0.0 | 0.00 | 0.57 | 0.06 | 66 | 1010.8 |
| 20260506033932 | 55 | 1 | 0.0 | 0.0 | 0.00 | 0.57 | 0.06 | 66 | 1010.8 |
| 20260506033431 | 55 | 1 | 0.0 | 0.0 | 0.00 | 0.57 | 0.06 | 66 | 1011.0 |
| 20260506032932 | 55 | 1 | 0.0 | 0.0 | 0.00 | 0.57 | 0.06 | 66 | 1010.9 |
| 20260506032429 | 55 | 1 | 0.0 | 0.0 | 0.00 | 0.57 | 0.06 | 66 | 1010.8 |
| 20260506031929 | 55 | 1 | 0.0 | 0.0 | 0.00 | 0.57 | 0.06 | 66 | 1010.8 |
| 20260506031640 | 55 | 1 | 0.0 | 0.0 | 0.00 | 0.57 | 0.06 | 66 | 1011.0 |
| 20260506031456 | 55 | 1 | 0.0 | 0.0 | 0.00 | 0.57 | 0.06 | 66 | 1010.9 |
| 20260506030616 | 55 | 1 | 0.0 | 0.0 | 0.00 | 0.57 | 0.06 | 66 | 1010.9 |
| 20260506030450 | 55 | 1 | 0.0 | 0.0 | 0.00 | 0.57 | 0.06 | 66 | 1011.0 |
| 20260506025424 | 55 | 1 | 0.0 | 0.0 | 0.00 | 0.57 | 0.06 | 66 | 1011.0 |
| 20260506025102 | 56 | 1 | 0.0 | 0.0 | 0.00 | 0.57 | 0.06 | 66 | 1011.1 |
| 20260506024938 | 55 | 1 | 0.0 | 0.0 | 0.00 | 0.57 | 0.06 | 66 | 1011.1 |
| 20260506023923 | 56 | 1 | 0.0 | 0.0 | 0.00 | 0.57 | 0.06 | 66 | 1011.2 |